Location: Jackson Park
(37.2862°N, 79.9123°W)
Time: 20:44:42
(UTC+00:00)

Transit 4A - Pass Details

Date: 16 May 2026
Orbit: 860 x 980 km, 66.8° (Epoch: 9 June)

Event Time Altitude Azimuth Distance (km) Brightness Sun altitude
Rises 12:12:09 0° 191° (S) 3,511 10.7 22.4°
Reaches altitude 10° 12:14:40 10° 186° (S) 2,591 10.2 22.9°
Maximum altitude 12:20:29 52° 112° (ESE) 1,147 9.5 24.0°
Drops below altitude 10° 12:26:32 10° 37° (NE) 2,686 11.1 25.2°
Sets 12:29:10 0° 33° (NNE) 3,650 11.5 25.8°
